Guntersville, AL (35976)

10:21 PM CDT on September 21, 2014 (GMT -0500)
KJ4UXN - Warrenton Shores | Change Station
CLOSE
Current Station
Personal Weather Station
Location: Guntersville, AL
Elevation: 633 ft
Nearby Weather Stations

Elev 633 ft 34.36 °N, 86.35 °W | Updated 18 seconds ago

Rain
Rain
74.7 °F
Feels Like 74 °F
N
3.0
Wind Variable Wind from NW
Gusts 4.0 mph

Today
High -- | Low -- °F
--% Chance of Precip.
Yesterday
High -- | Low -- °F
Precip. -- in
6:32 AM 6:43 PM
Waning Crescent, 4% visible
Pressure 30.00 in
Visibility 10.0 miles
Clouds Scattered Clouds 3600 ft
Scattered Clouds 7000 ft
Heat Index 74 °F
Dew Point 70 °F
Humidity 87%
Rainfall 0.00 in
Snow Depth Not available.
UV 0 out of 12
Pollen 7.50 out of 12
Ozone Good
PM2.5 Moderate
Flu Activity Not available.
METAR K8A0 220315Z AUTO 28004KT 10SM VCTS SCT036 SCT070 24/22 A3000 RMK AO2 LTG DSNT S AND SW

More Conditions Fewer Conditions

Pressure 30.00 in
Visibility 10.0 miles
Clouds Scattered Clouds 3600 ft
Scattered Clouds 7000 ft
Heat Index 74 °F
Dew Point 70 °F
Humidity 87%
Rainfall 0.00 in
Snow Depth Not available.
UV 0 out of 12
Pollen 7.50 out of 12
Ozone Good
PM2.5 Moderate
Flu Activity Not available.
METAR K8A0 220315Z AUTO 28004KT 10SM VCTS SCT036 SCT070 24/22 A3000 RMK AO2 LTG DSNT S AND SW

More Conditions Fewer Conditions

10-Day Weather Forecast

Almanac

Astronomy

Sep. 21, 2014 Rise Set
Actual Time 6:32 AM CDT 6:43 PM CDT
Civil Twilight 6:07 AM CDT 7:08 PM CDT
Nautical Twilight 5:38 AM CDT 7:37 PM CDT
Astronomical Twilight 5:08 AM CDT 8:07 PM CDT
Moon 4:10 AM CDT (9/21) 5:15 PM CDT (9/21)
Length of Visible Light 13h 00m
Length of Day
12h 10m
Tomorrow will be 2m 7s shorter.
Waning Crescent, 4% of the Moon is Illuminated
Today
Waning Crescent
Sep 24
New
Oct 1
First Quarter
Oct 8
Full
Oct 15
Last Quarter

Today's Extremes

State Highs State Lows

Community

WunderPhotos

Upload Photos

1,755,382 photos uploaded!

WunderBlogs® & News

Nearby

Air Quality

  Air Quality AQ Index Pollutant
Yesterday Good
OZONE
Yesterday Good
PM10
Current Moderate
PM2.5
Current Good
OZONE
Sunday Moderate
PM2.5
Sunday Good
OZONE
Monday Good
OZONE
Monday Good
PM2.5

Snow Depth

Station Depth Elevation
No new snow has been reported.

Earthquake Activity

City Distance Mag. Time & Date
Sweetwater, Tennessee 139 miles 2.5 2:54 PM CDT
2014-09-20
Minimum magnitude displayed is 2.5.

Coastal Water Temperatures

Place Temperature
No Stations Reporting

Nearby Weather Stations